| time (UTC) | temp C | wind direction | speed KPH | gust KPH | rain 1hr cm | rain 24hr cm | rain mn cm | humidity % | barometer mb |
| 20260901064449 | 18 | 303 | 1.6 | 14.5 | 0.00 | 0.13 | 0.03 | 38 | 1023.0 |
| 20260901063549 | 18 | 302 | 3.2 | 14.5 | 0.00 | 0.18 | 0.03 | 40 | 1023.0 |
| 20260901062649 | 17 | 306 | 3.2 | 17.7 | 0.00 | 0.28 | 0.03 | 41 | 1023.0 |
| 20260901061749 | 17 | 303 | 3.2 | 12.9 | 0.00 | 0.33 | 0.03 | 42 | 1022.9 |
| 20260901060849 | 18 | 278 | 3.2 | 12.9 | 0.00 | 0.53 | 0.03 | 44 | 1022.9 |
| 20260901055949 | 17 | 294 | 3.2 | 14.5 | 0.00 | 0.53 | 0.03 | 46 | 1022.9 |
| 20260901055049 | 17 | 327 | 3.2 | 12.9 | 0.00 | 0.84 | 0.03 | 48 | 1022.7 |
| 20260901054149 | 17 | 329 | 3.2 | 9.7 | 0.00 | 1.02 | 0.03 | 50 | 1022.7 |
| 20260901053249 | 17 | 319 | 1.6 | 16.1 | 0.00 | 1.02 | 0.03 | 53 | 1022.7 |
| 20260901051449 | 15 | 317 | 4.8 | 12.9 | 0.00 | 1.02 | 0.03 | 62 | 1022.7 |
| 20260901050549 | 14 | 314 | 1.6 | 8.0 | 0.00 | 1.02 | 0.03 | 66 | 1022.6 |
| 20260901044749 | 14 | 320 | 1.6 | 6.4 | 0.00 | 1.02 | 0.03 | 67 | 1022.5 |
| 20260901043849 | 13 | 314 | 0.0 | 6.4 | 0.00 | 1.02 | 0.03 | 68 | 1022.5 |
| 20260901042949 | 13 | 316 | 1.6 | 6.4 | 0.00 | 1.02 | 0.03 | 68 | 1022.6 |
| 20260901041149 | 13 | 341 | 0.0 | 9.7 | 0.00 | 1.02 | 0.03 | 67 | 1022.4 |
| 20260901040249 | 13 | 331 | 1.6 | 8.0 | 0.00 | 1.02 | 0.03 | 67 | 1022.3 |
| 20260901034449 | 13 | 322 | 1.6 | 9.7 | 0.00 | 1.02 | 0.03 | 66 | 1022.4 |
| 20260901033549 | 13 | 309 | 3.2 | 9.7 | 0.00 | 1.02 | 0.03 | 66 | 1022.2 |
| 20260901031749 | 13 | 305 | 1.6 | 6.4 | 0.00 | 1.02 | 0.03 | 64 | 1022.1 |
| 20260901030849 | 13 | 337 | 1.6 | 6.4 | 0.00 | 1.02 | 0.03 | 63 | 1022.3 |
| 20260901025949 | 13 | 313 | 1.6 | 6.4 | 0.00 | 1.02 | 0.03 | 62 | 1022.1 |
| 20260901025049 | 13 | 302 | 0.0 | 6.4 | 0.00 | 1.02 | 0.03 | 61 | 1022.1 |
| 20260901024149 | 13 | 293 | 3.2 | 6.4 | 0.00 | 1.02 | 0.03 | 59 | 1022.2 |
| 20260901023249 | 13 | 300 | 3.2 | 6.4 | 0.00 | 1.02 | 0.03 | 57 | 1022.2 |
| 20260901022349 | 13 | 314 | 3.2 | 6.4 | 0.00 | 1.02 | 0.03 | 56 | 1022.2 |
| 20260901021449 | 13 | 314 | 0.0 | 3.2 | 0.03 | 1.02 | 0.03 | 54 | 1022.1 |
| 20260901020549 | 13 | 202 | 0.0 | 3.2 | 0.03 | 1.02 | 0.03 | 54 | 1022.1 |
| 20260901015649 | 13 | 83 | 0.0 | 3.2 | 0.03 | 1.02 | 0.03 | 54 | 1022.1 |
| 20260901014749 | 13 | 14 | 1.6 | 4.8 | 0.03 | 1.02 | 0.03 | 54 | 1022.1 |
| 20260901013849 | 13 | 1 | 0.0 | 4.8 | 0.03 | 1.02 | 0.03 | 53 | 1022.0 |
| 20260901012949 | 13 | 3 | 1.6 | 4.8 | 0.03 | 1.02 | 0.03 | 52 | 1021.9 |
| 20260901012049 | 14 | 322 | 0.0 | 9.7 | 0.03 | 1.02 | 0.03 | 51 | 1021.9 |
| 20260901011149 | 14 | 250 | 3.2 | 9.7 | 0.00 | 0.99 | 0.00 | 50 | 1022.0 |
| 20260901010249 | 14 | 272 | 0.0 | 9.7 | 0.00 | 0.99 | 0.00 | 48 | 1022.0 |
| 20260901005349 | 14 | 275 | 1.6 | 6.4 | 0.00 | 0.99 | 0.00 | 47 | 1021.9 |
| 20260901004449 | 15 | 284 | 1.6 | 6.4 | 0.00 | 0.99 | 0.00 | 46 | 1021.8 |
| 20260901003549 | 15 | 302 | 3.2 | 6.4 | 0.00 | 0.99 | 0.00 | 45 | 1021.9 |
| 20260901002649 | 15 | 272 | 1.6 | 6.4 | 0.00 | 0.99 | 0.00 | 45 | 1021.6 |
| 20260901001749 | 15 | 283 | 0.0 | 4.8 | 0.00 | 0.99 | 0.00 | 45 | 1021.9 |
| 20260831235949 | 15 | 284 | 1.6 | 8.0 | 0.00 | 0.99 | 0.00 | 45 | 1022.0 |
| 20260831235049 | 14 | 306 | 0.0 | 3.2 | 0.00 | 0.99 | 0.00 | 43 | 1022.0 |
| 20260831234149 | 14 | 346 | 0.0 | 3.2 | 0.00 | 0.99 | 0.00 | 42 | 1021.9 |
| 20260831233249 | 14 | 349 | 0.0 | 4.8 | 0.00 | 0.99 | 0.00 | 41 | 1022.0 |
| 20260831232348 | 15 | 314 | 0.0 | 4.8 | 0.00 | 0.99 | 0.00 | 40 | 1021.8 |
| 20260831230549 | 15 | 320 | 0.0 | 6.4 | 0.00 | 0.99 | 0.00 | 37 | 1022.0 |
| 20260831225649 | 15 | 1 | 0.0 | 6.4 | 0.00 | 0.99 | 0.00 | 37 | 1021.8 |
| 20260831224749 | 15 | 343 | 1.6 | 9.7 | 0.00 | 0.99 | 0.00 | 37 | 1021.8 |
| 20260831223848 | 15 | 310 | 3.2 | 9.7 | 0.00 | 0.99 | 0.00 | 37 | 1021.6 |
| 20260831222948 | 15 | 347 | 0.0 | 4.8 | 0.00 | 0.99 | 0.00 | 36 | 1021.6 |
| 20260831222049 | 16 | 277 | 1.6 | 8.0 | 0.00 | 0.99 | 0.00 | 35 | 1021.4 |
| 20260831221149 | 16 | 252 | 0.0 | 4.8 | 0.00 | 0.99 | 0.00 | 34 | 1021.4 |
| 20260831220249 | 16 | 196 | 0.0 | 4.8 | 0.00 | 0.99 | 0.00 | 33 | 1021.3 |
| 20260831215348 | 16 | 314 | 0.0 | 6.4 | 0.00 | 0.99 | 0.99 | 33 | 1021.3 |
| 20260831214449 | 16 | 294 | 1.6 | 8.0 | 0.00 | 0.99 | 0.99 | 34 | 1021.4 |
| 20260831213549 | 16 | 298 | 0.0 | 8.0 | 0.00 | 0.99 | 0.99 | 36 | 1021.3 |
| 20260831212648 | 16 | 294 | 1.6 | 11.3 | 0.00 | 0.99 | 0.99 | 40 | 1021.3 |
| 20260831211748 | 16 | 308 | 0.0 | 8.0 | 0.00 | 0.99 | 0.99 | 47 | 1021.1 |
| 20260831210849 | 15 | 314 | 0.0 | 6.4 | 0.00 | 0.99 | 0.99 | 52 | 1021.0 |
| 20260831205948 | 15 | 314 | 3.2 | 6.4 | 0.00 | 0.99 | 0.99 | 55 | 1020.8 |
| 20260831205048 | 15 | 314 | 0.0 | 3.2 | 0.00 | 0.99 | 0.99 | 55 | 1020.6 |
| 20260831203249 | 15 | 314 | 0.0 | 1.6 | 0.00 | 0.99 | 0.99 | 57 | 1020.4 |
| 20260831202348 | 15 | 314 | 0.0 | 1.6 | 0.00 | 0.99 | 0.99 | 57 | 1020.2 |
| 20260831201449 | 14 | 314 | 0.0 | 1.6 | 0.00 | 0.99 | 0.99 | 56 | 1020.1 |
| 20260831200548 | 14 | 314 | 0.0 | 3.2 | 0.03 | 0.99 | 0.99 | 55 | 1020.1 |
| 20260831195648 | 14 | 314 | 0.0 | 3.2 | 0.03 | 0.99 | 0.99 | 55 | 1020.1 |
| 20260831194749 | 15 | 314 | 0.0 | 3.2 | 0.03 | 0.99 | 0.99 | 55 | 1020.1 |
| 20260831193849 | 15 | 314 | 0.0 | 1.6 | 0.03 | 0.99 | 0.99 | 55 | 1020.0 |
| 20260831192949 | 15 | 319 | 0.0 | 3.2 | 0.03 | 0.99 | 0.99 | 56 | 1020.1 |
| 20260831192049 | 15 | 338 | 1.6 | 3.2 | 0.03 | 0.99 | 0.99 | 56 | 1020.0 |
| 20260831191149 | 14 | 351 | 0.0 | 3.2 | 0.03 | 0.99 | 0.99 | 55 | 1019.9 |
| 20260831190249 | 14 | 341 | 0.0 | 3.2 | 0.00 | 0.97 | 0.97 | 54 | 1019.8 |
| 20260831185349 | 14 | 315 | 0.0 | 3.2 | 0.00 | 0.97 | 0.97 | 53 | 1019.7 |
| 20260831184449 | 14 | 314 | 0.0 | 3.2 | 0.00 | 0.97 | 0.97 | 50 | 1020.0 |
| 20260831183548 | 15 | 314 | 0.0 | 3.2 | 0.00 | 0.97 | 0.97 | 46 | 1019.8 |
| 20260831182649 | 15 | 314 | 0.0 | 3.2 | 0.00 | 0.97 | 0.97 | 43 | 1019.5 |
| 20260831181749 | 15 | 314 | 0.0 | 3.2 | 0.00 | 0.97 | 0.97 | 40 | 1019.4 |
| 20260831180848 | 16 | 314 | 0.0 | 3.2 | 0.00 | 0.97 | 0.97 | 37 | 1019.3 |
| 20260831175948 | 16 | 315 | 0.0 | 3.2 | 0.00 | 0.97 | 0.97 | 35 | 1019.1 |
| 20260831175048 | 17 | 314 | 0.0 | 3.2 | 0.00 | 0.97 | 0.97 | 31 | 1019.3 |
| 20260831174148 | 17 | 314 | 0.0 | 1.6 | 0.00 | 0.97 | 0.97 | 29 | 1019.0 |
| 20260831173248 | 18 | 314 | 0.0 | 1.6 | 0.00 | 0.97 | 0.97 | 26 | 1019.0 |
| 20260831172348 | 18 | 314 | 0.0 | 1.6 | 0.00 | 0.97 | 0.97 | 23 | 1019.0 |
| 20260831171448 | 20 | 314 | 0.0 | 3.2 | 0.00 | 0.97 | 0.97 | 18 | 1018.8 |
| 20260831170548 | 20 | 314 | 0.0 | 3.2 | 0.00 | 0.97 | 0.97 | 15 | 1018.8 |
| 20260831165648 | 20 | 314 | 0.0 | 3.2 | 0.00 | 0.97 | 0.97 | 15 | 1018.6 |
| 20260831164748 | 21 | 318 | 0.0 | 4.8 | 0.00 | 0.97 | 0.97 | 14 | 1018.7 |
| 20260831163848 | 21 | 314 | 0.0 | 3.2 | 0.00 | 0.97 | 0.97 | 13 | 1018.8 |
| 20260831162948 | 21 | 339 | 0.0 | 3.2 | 0.00 | 0.97 | 0.97 | 11 | 1018.8 |
| 20260831162048 | 22 | 1 | 0.0 | 6.4 | 0.00 | 0.97 | 0.97 | 10 | 1018.8 |
| 20260831161148 | 23 | 327 | 1.6 | 11.3 | 0.00 | 0.97 | 0.97 | 10 | 1018.7 |
| 20260831160248 | 24 | 291 | 1.6 | 11.3 | 0.00 | 0.97 | 0.97 | 10 | 1018.9 |
| 20260831155348 | 24 | 310 | 1.6 | 6.4 | 0.00 | 0.97 | 0.97 | 10 | 1018.9 |
| 20260831154448 | 23 | 296 | 1.6 | 6.4 | 0.00 | 0.97 | 0.97 | 10 | 1018.8 |
| 20260831153548 | 25 | 309 | 3.2 | 8.0 | 0.00 | 0.97 | 0.97 | 10 | 1018.9 |
| 20260831152648 | 25 | 332 | 3.2 | 9.7 | 0.00 | 0.97 | 0.97 | 10 | 1018.9 |
| 20260831150848 | 25 | 265 | 1.6 | 6.4 | 0.00 | 0.97 | 0.97 | 10 | 1019.1 |
| 20260831145948 | 25 | 257 | 0.0 | 9.7 | 0.00 | 0.97 | 0.97 | 10 | 1019.1 |
| 20260831145048 | 25 | 272 | 3.2 | 12.9 | 0.00 | 0.97 | 0.97 | 10 | 1019.1 |
| 20260831144148 | 24 | 198 | 0.0 | 6.4 | 0.00 | 0.97 | 0.97 | 10 | 1019.1 |
| 20260831143248 | 24 | 324 | 0.0 | 12.9 | 0.00 | 0.97 | 0.97 | 10 | 1019.3 |
| 20260831141448 | 24 | 318 | 3.2 | 9.7 | 0.00 | 0.97 | 0.97 | 10 | 1019.2 |
| 20260831140548 | 25 | 330 | 3.2 | 11.3 | 0.00 | 0.97 | 0.97 | 10 | 1019.2 |
| 20260831135648 | 25 | 328 | 3.2 | 8.0 | 0.00 | 0.97 | 0.97 | 10 | 1019.1 |
| 20260831134748 | 25 | 296 | 1.6 | 12.9 | 0.00 | 0.97 | 0.97 | 10 | 1019.0 |
| 20260831133848 | 25 | 279 | 3.2 | 12.9 | 0.00 | 0.97 | 0.97 | 10 | 1019.2 |
| 20260831132948 | 24 | 299 | 3.2 | 12.9 | 0.00 | 0.97 | 0.97 | 10 | 1019.1 |
| 20260831131148 | 22 | 298 | 3.2 | 17.7 | 0.00 | 0.97 | 0.97 | 17 | 1019.2 |
| 20260831130248 | 22 | 270 | 1.6 | 9.7 | 0.00 | 0.97 | 0.97 | 20 | 1019.4 |
| 20260831125348 | 22 | 301 | 0.0 | 6.4 | 0.00 | 0.97 | 0.97 | 20 | 1019.3 |
| 20260831124449 | 22 | 329 | 0.0 | 12.9 | 0.00 | 0.97 | 0.97 | 20 | 1019.3 |
| 20260831123548 | 21 | 317 | 1.6 | 12.9 | 0.00 | 0.97 | 0.97 | 23 | 1019.4 |
| 20260831122648 | 22 | 316 | 3.2 | 12.9 | 0.00 | 0.97 | 0.97 | 23 | 1019.4 |
| 20260831121748 | 22 | 324 | 4.8 | 11.3 | 0.00 | 0.97 | 0.97 | 26 | 1019.3 |
| 20260831120848 | 22 | 281 | 3.2 | 9.7 | 0.00 | 0.97 | 0.97 | 23 | 1019.3 |
| 20260831115948 | 23 | 320 | 3.2 | 12.9 | 0.00 | 0.97 | 0.97 | 22 | 1019.2 |
| 20260831115048 | 23 | 331 | 3.2 | 12.9 | 0.00 | 0.97 | 0.97 | 21 | 1019.4 |
| 20260831114148 | 23 | 309 | 4.8 | 12.9 | 0.00 | 0.97 | 0.97 | 23 | 1019.1 |
| 20260831113248 | 22 | 341 | 3.2 | 12.9 | 0.00 | 0.97 | 0.97 | 28 | 1019.3 |
| 20260831112348 | 21 | 302 | 3.2 | 9.7 | 0.00 | 0.97 | 0.97 | 30 | 1019.3 |
| 20260831111448 | 23 | 216 | 3.2 | 12.9 | 0.00 | 0.97 | 0.97 | 25 | 1019.3 |
| 20260831110548 | 23 | 218 | 1.6 | 11.3 | 0.00 | 0.97 | 0.97 | 28 | 1019.3 |
| 20260831105648 | 23 | 293 | 3.2 | 22.5 | 0.00 | 0.97 | 0.97 | 33 | 1019.3 |
| 20260831103848 | 22 | 300 | 3.2 | 20.9 | 0.00 | 0.97 | 0.97 | 37 | 1019.3 |
| 20260831102048 | 22 | 291 | 0.0 | 12.9 | 0.00 | 0.97 | 0.97 | 41 | 1019.4 |
| 20260831101148 | 22 | 318 | 3.2 | 16.1 | 0.00 | 0.97 | 0.97 | 45 | 1019.3 |
| 20260831100248 | 22 | 281 | 1.6 | 16.1 | 0.00 | 0.97 | 0.97 | 44 | 1019.3 |
| 20260831095348 | 21 | 319 | 3.2 | 12.9 | 0.00 | 0.97 | 0.97 | 52 | 1019.2 |
| 20260831094448 | 21 | 312 | 4.8 | 14.5 | 0.00 | 0.97 | 0.97 | 58 | 1019.1 |
| 20260831093548 | 20 | 320 | 3.2 | 12.9 | 0.00 | 0.97 | 0.97 | 69 | 1019.2 |
| 20260831091748 | 18 | 312 | 3.2 | 11.3 | 0.03 | 0.97 | 0.97 | 70 | 1019.3 |
| 20260831085948 | 18 | 315 | 3.2 | 8.0 | 0.03 | 0.97 | 0.97 | 68 | 1019.5 |
| 20260831085048 | 19 | 320 | 0.0 | 9.7 | 0.03 | 0.97 | 0.97 | 67 | 1019.4 |
| 20260831082348 | 21 | 313 | 4.8 | 12.9 | 0.03 | 0.97 | 0.97 | 66 | 1019.0 |
| 20260831080548 | 20 | 310 | 1.6 | 6.4 | 0.00 | 0.94 | 0.94 | 99 | 1018.8 |
| 20260831075648 | 19 | 314 | 3.2 | 8.0 | 0.00 | 0.94 | 0.94 | 99 | 1018.5 |
| 20260831074748 | 17 | 318 | 0.0 | 9.7 | 0.03 | 0.94 | 0.94 | 99 | 1018.5 |
| 20260831073848 | 17 | 348 | 3.2 | 9.7 | 0.05 | 0.94 | 0.94 | 99 | 1018.2 |
| 20260831072948 | 16 | 316 | 0.0 | 6.4 | 0.15 | 0.94 | 0.94 | 99 | 1018.3 |
| 20260831072048 | 16 | 324 | 0.0 | 3.2 | 0.20 | 0.94 | 0.94 | 99 | 1018.1 |
| 20260831071148 | 16 | 320 | 0.0 | 4.8 | 0.28 | 0.94 | 0.94 | 99 | 1017.8 |
| 20260831070248 | 16 | 314 | 0.0 | 3.2 | 0.46 | 0.94 | 0.94 | 99 | 1017.9 |
| 20260831065348 | 15 | 0 | 0.0 | 0.0 | 0.53 | 0.94 | 0.94 | 99 | 1017.7 |